Time,TemperatureF,DewpointF,PressureIn,WindDirection,WindDirectionDegrees,WindSpeedMPH,WindSpeedGustMPH,Humidity,HourlyPrecipIn,Conditions,Clouds,dailyrainin,SoftwareType,DateUTC
2013-01-13 00:03:00,40.0,40.0,30.09,South,191,0.0,0.0,100,0.00,,,0.04,,2013-01-13 05:03:00,
2013-01-13 00:12:00,40.0,40.0,30.09,South,191,0.0,0.0,100,0.00,,,0.04,,2013-01-13 05:12:00,
2013-01-13 00:23:00,40.0,40.0,30.09,South,191,0.0,0.0,100,0.00,,,0.03,,2013-01-13 05:23:00,
2013-01-13 00:32:00,40.0,40.0,30.09,South,191,0.0,0.0,100,0.00,,,0.03,,2013-01-13 05:32:00,
2013-01-13 00:42:00,40.0,40.0,30.09,South,191,0.0,0.0,100,0.00,,,0.03,,2013-01-13 05:42:00,
2013-01-13 00:53:00,40.0,40.0,30.09,South,191,0.0,0.0,100,0.00,,,0.03,,2013-01-13 05:53:00,
2013-01-13 01:03:00,40.0,40.0,30.09,South,191,0.0,2.0,100,0.00,,,0.03,,2013-01-13 06:03:00,
2013-01-13 01:12:00,40.0,40.0,30.09,WSW,248,2.0,3.0,100,0.00,,,0.02,,2013-01-13 06:12:00,
2013-01-13 01:22:00,40.0,40.0,30.09,WSW,248,2.0,3.0,100,0.00,,,0.02,,2013-01-13 06:22:00,
2013-01-13 01:32:00,40.0,40.0,30.09,West,259,0.0,2.0,100,0.00,,,0.02,,2013-01-13 06:32:00,
2013-01-13 01:42:00,40.0,40.0,30.09,West,259,0.0,2.0,100,0.00,,,0.02,,2013-01-13 06:42:00,
2013-01-13 01:52:00,40.0,40.0,30.09,West,259,0.0,3.0,100,0.00,,,0.02,,2013-01-13 06:52:00,
2013-01-13 02:02:00,40.0,40.0,30.09,West,259,0.0,1.0,100,0.00,,,0.02,,2013-01-13 07:02:00,
2013-01-13 02:12:00,40.0,40.0,30.09,West,259,0.0,1.0,100,0.00,,,0.02,,2013-01-13 07:12:00,
2013-01-13 02:22:00,40.0,40.0,30.09,West,259,0.0,2.0,100,0.00,,,0.02,,2013-01-13 07:22:00,
2013-01-13 02:32:00,40.0,40.0,30.10,West,259,0.0,2.0,100,0.00,,,0.02,,2013-01-13 07:32:00,
2013-01-13 02:42:00,40.0,40.0,30.10,West,259,0.0,2.0,100,0.00,,,0.02,,2013-01-13 07:42:00,
2013-01-13 02:53:00,40.0,40.0,30.10,West,259,0.0,0.0,100,0.00,,,0.02,,2013-01-13 07:53:00,
2013-01-13 03:02:00,40.0,40.0,30.09,West,259,0.0,3.0,100,0.00,,,0.02,,2013-01-13 08:02:00,
2013-01-13 03:12:00,40.0,40.0,30.09,West,259,0.0,3.0,100,0.00,,,0.02,,2013-01-13 08:12:00,
2013-01-13 03:22:00,40.0,40.0,30.09,West,259,0.0,1.0,100,0.00,,,0.02,,2013-01-13 08:22:00,
2013-01-13 03:32:00,40.0,40.0,30.09,West,259,0.0,0.0,100,0.00,,,0.02,,2013-01-13 08:32:00,
2013-01-13 03:42:00,40.0,40.0,30.09,West,259,0.0,0.0,100,0.00,,,0.02,,2013-01-13 08:42:00,
2013-01-13 03:53:00,40.0,40.0,30.09,West,259,0.0,0.0,100,0.00,,,0.02,,2013-01-13 08:53:00,
2013-01-13 04:02:00,40.0,40.0,30.08,West,259,0.0,0.0,100,0.00,,,0.02,,2013-01-13 09:02:00,
2013-01-13 04:12:00,40.0,40.0,30.07,West,259,0.0,2.0,100,0.00,,,0.02,,2013-01-13 09:12:00,
2013-01-13 04:22:00,40.0,40.0,30.07,West,259,0.0,2.0,100,0.00,,,0.02,,2013-01-13 09:22:00,
2013-01-13 04:32:00,40.0,40.0,30.06,West,259,0.0,0.0,100,0.00,,,0.02,,2013-01-13 09:32:00,
2013-01-13 04:42:00,40.0,40.0,30.06,West,259,0.0,0.0,100,0.00,,,0.02,,2013-01-13 09:42:00,
2013-01-13 04:52:00,40.0,40.0,30.06,West,259,0.0,0.0,100,0.00,,,0.02,,2013-01-13 09:52:00,
2013-01-13 05:02:00,40.0,40.0,30.06,West,259,0.0,3.0,100,0.00,,,0.02,,2013-01-13 10:02:00,
2013-01-13 05:12:00,40.0,40.0,30.06,West,259,0.0,3.0,100,0.00,,,0.02,,2013-01-13 10:12:00,
2013-01-13 05:22:00,40.0,40.0,30.06,West,259,0.0,1.0,100,0.00,,,0.02,,2013-01-13 10:22:00,
2013-01-13 05:32:00,40.0,40.0,30.05,West,259,0.0,0.0,100,0.00,,,0.02,,2013-01-13 10:32:00,
2013-01-13 05:42:00,40.0,40.0,30.05,West,259,0.0,0.0,100,0.00,,,0.02,,2013-01-13 10:42:00,
2013-01-13 05:53:00,40.0,40.0,30.05,West,259,0.0,0.0,100,0.00,,,0.02,,2013-01-13 10:53:00,
2013-01-13 06:02:00,40.0,40.0,30.06,West,259,0.0,1.0,100,0.00,,,0.02,,2013-01-13 11:02:00,
2013-01-13 06:12:00,40.0,40.0,30.06,West,259,0.0,1.0,100,0.00,,,0.02,,2013-01-13 11:12:00,
2013-01-13 06:22:00,40.0,40.0,30.07,West,259,0.0,0.0,100,0.00,,,0.01,,2013-01-13 11:22:00,
2013-01-13 06:32:00,40.0,40.0,30.07,West,259,0.0,0.0,100,0.00,,,0.01,,2013-01-13 11:32:00,
2013-01-13 06:42:00,40.0,40.0,30.07,West,259,0.0,0.0,100,0.00,,,0.01,,2013-01-13 11:42:00,
2013-01-13 06:53:00,40.0,40.0,30.08,West,259,0.0,0.0,100,0.00,,,0.01,,2013-01-13 11:53:00,
2013-01-13 07:03:00,40.0,40.0,30.07,West,259,0.0,0.0,100,0.00,,,0.01,,2013-01-13 12:03:00,
2013-01-13 07:12:00,40.0,40.0,30.07,West,259,0.0,0.0,100,0.00,,,0.01,,2013-01-13 12:12:00,
2013-01-13 07:22:00,40.0,40.0,30.07,West,259,0.0,0.0,100,0.00,,,0.01,,2013-01-13 12:22:00,
2013-01-13 07:33:00,40.0,40.0,30.08,West,259,0.0,0.0,100,0.00,,,0.01,,2013-01-13 12:33:00,
2013-01-13 07:42:00,40.0,40.0,30.08,West,259,0.0,0.0,100,0.00,,,0.01,,2013-01-13 12:42:00,
2013-01-13 07:53:00,40.0,40.0,30.09,West,259,0.0,0.0,100,0.00,,,0.01,,2013-01-13 12:53:00,
2013-01-13 08:03:00,40.0,40.0,30.09,West,259,0.0,2.0,100,0.00,,,0.01,,2013-01-13 13:03:00,
2013-01-13 08:12:00,40.0,40.0,30.09,West,259,0.0,2.0,100,0.00,,,0.01,,2013-01-13 13:12:00,
2013-01-13 08:22:00,40.0,40.0,30.10,West,259,0.0,0.0,100,0.00,,,0.01,,2013-01-13 13:22:00,
2013-01-13 08:33:00,41.0,41.0,30.09,West,259,0.0,0.0,100,0.00,,,0.01,,2013-01-13 13:33:00,
2013-01-13 08:42:00,41.0,41.0,30.09,West,259,0.0,0.0,100,0.00,,,0.01,,2013-01-13 13:42:00,
2013-01-13 08:53:00,41.0,41.0,30.09,West,259,0.0,0.0,100,0.00,,,0.01,,2013-01-13 13:53:00,
2013-01-13 09:03:00,41.0,41.0,30.10,West,259,0.0,2.0,100,0.00,,,0.01,,2013-01-13 14:03:00,
2013-01-13 09:12:00,41.0,41.0,30.10,West,259,0.0,2.0,100,0.00,,,0.01,,2013-01-13 14:12:00,
2013-01-13 09:22:00,42.0,42.0,30.10,West,259,0.0,2.0,100,0.00,,,0.01,,2013-01-13 14:22:00,
2013-01-13 09:33:00,42.0,42.0,30.10,West,259,0.0,1.0,100,0.00,,,0.01,,2013-01-13 14:33:00,
2013-01-13 09:43:00,42.0,42.0,30.10,West,259,0.0,1.0,100,0.00,,,0.01,,2013-01-13 14:43:00,
2013-01-13 09:53:00,42.0,42.0,30.09,West,259,0.0,1.0,100,0.00,,,0.01,,2013-01-13 14:53:00,
2013-01-13 10:03:00,43.0,43.0,30.09,West,260,1.0,4.0,100,0.00,,,0.01,,2013-01-13 15:03:00,
2013-01-13 10:12:00,43.0,43.0,30.09,West,260,1.0,4.0,100,0.00,,,0.01,,2013-01-13 15:12:00,
2013-01-13 10:23:00,43.0,43.0,30.11,West,260,0.0,3.0,100,0.00,,,0.01,,2013-01-13 15:23:00,
2013-01-13 10:33:00,44.0,44.0,30.11,WNW,282,2.0,4.0,100,0.00,,,0.01,,2013-01-13 15:33:00,
2013-01-13 10:43:00,44.0,44.0,30.11,WNW,282,2.0,4.0,100,0.00,,,0.01,,2013-01-13 15:43:00,
2013-01-13 10:53:00,44.0,44.0,30.10,West,267,0.0,4.0,100,0.00,,,0.01,,2013-01-13 15:53:00,
2013-01-13 11:03:00,44.0,44.0,30.09,West,267,1.0,2.0,100,0.00,,,0.01,,2013-01-13 16:03:00,
2013-01-13 11:12:00,44.0,44.0,30.09,West,267,1.0,2.0,100,0.00,,,0.01,,2013-01-13 16:12:00,
2013-01-13 11:23:00,44.0,44.0,30.09,SW,229,1.0,5.0,100,0.00,,,0.01,,2013-01-13 16:23:00,
2013-01-13 11:33:00,44.0,44.0,30.08,SW,229,1.0,3.0,100,0.00,,,0.01,,2013-01-13 16:33:00,
2013-01-13 11:43:00,44.0,44.0,30.08,SW,229,1.0,3.0,100,0.00,,,0.01,,2013-01-13 16:43:00,
2013-01-13 11:53:00,45.0,45.0,30.07,WSW,252,2.0,4.0,100,0.00,,,0.01,,2013-01-13 16:53:00,
2013-01-13 12:03:00,45.0,45.0,30.06,WSW,252,0.0,2.0,100,0.00,,,0.01,,2013-01-13 17:03:00,
2013-01-13 12:12:00,45.0,45.0,30.06,WSW,252,0.0,2.0,100,0.00,,,0.01,,2013-01-13 17:12:00,
2013-01-13 12:22:00,45.0,45.0,30.06,WNW,300,0.0,2.0,100,0.00,,,0.01,,2013-01-13 17:22:00,
2013-01-13 12:33:00,46.0,46.0,30.06,SW,229,0.0,6.0,100,0.00,,,0.01,,2013-01-13 17:33:00,
2013-01-13 12:42:00,46.0,46.0,30.06,SW,229,0.0,6.0,100,0.00,,,0.01,,2013-01-13 17:42:00,
2013-01-13 12:53:00,46.0,46.0,30.06,West,259,1.0,4.0,100,0.00,,,0.01,,2013-01-13 17:53:00,
2013-01-13 13:03:00,46.0,46.0,30.05,West,268,0.0,3.0,100,0.00,,,0.01,,2013-01-13 18:03:00,
2013-01-13 13:12:00,46.0,46.0,30.05,West,268,0.0,3.0,100,0.00,,,0.01,,2013-01-13 18:12:00,
2013-01-13 13:23:00,47.0,47.0,30.03,West,271,2.0,6.0,100,0.00,,,0.01,,2013-01-13 18:23:00,
2013-01-13 13:33:00,47.0,47.0,30.03,West,276,1.0,4.0,100,0.00,,,0.01,,2013-01-13 18:33:00,
2013-01-13 13:43:00,47.0,47.0,30.03,West,276,1.0,4.0,100,0.00,,,0.01,,2013-01-13 18:43:00,
2013-01-13 13:53:00,47.0,47.0,30.03,West,271,0.0,3.0,100,0.00,,,0.01,,2013-01-13 18:53:00,
2013-01-13 14:03:00,48.0,48.0,30.03,SW,224,2.0,3.0,100,0.00,,,0.01,,2013-01-13 19:03:00,
2013-01-13 14:12:00,48.0,48.0,30.03,SW,224,2.0,3.0,100,0.00,,,0.01,,2013-01-13 19:12:00,
2013-01-13 14:23:00,48.0,48.0,30.03,West,261,0.0,2.0,100,0.00,,,0.01,,2013-01-13 19:23:00,
2013-01-13 14:33:00,48.0,48.0,30.02,West,263,0.0,3.0,100,0.00,,,0.01,,2013-01-13 19:33:00,
2013-01-13 14:43:00,48.0,48.0,30.02,West,263,0.0,3.0,100,0.00,,,0.01,,2013-01-13 19:43:00,
2013-01-13 14:53:00,48.0,48.0,30.01,WSW,257,0.0,2.0,100,0.00,,,0.01,,2013-01-13 19:53:00,
2013-01-13 15:03:00,49.0,49.0,30.01,WNW,299,0.0,2.0,100,0.00,,,0.01,,2013-01-13 20:03:00,
2013-01-13 15:12:00,49.0,49.0,30.01,WNW,299,0.0,2.0,100,0.00,,,0.01,,2013-01-13 20:12:00,
2013-01-13 15:22:00,49.0,49.0,30.01,West,265,1.0,3.0,100,0.00,,,0.01,,2013-01-13 20:22:00,
2013-01-13 15:33:00,50.0,50.0,30.01,WNW,283,1.0,3.0,100,0.00,,,0.01,,2013-01-13 20:33:00,
2013-01-13 15:43:00,50.0,50.0,30.01,WNW,283,1.0,3.0,100,0.00,,,0.01,,2013-01-13 20:43:00,
2013-01-13 15:53:00,50.0,50.0,30.01,West,266,0.0,5.0,100,0.00,,,0.01,,2013-01-13 20:53:00,
2013-01-13 16:03:00,50.0,50.0,30.00,West,266,1.0,3.0,100,0.00,,,0.01,,2013-01-13 21:03:00,
2013-01-13 16:12:00,50.0,50.0,30.00,West,266,1.0,3.0,100,0.00,,,0.01,,2013-01-13 21:12:00,
2013-01-13 16:23:00,49.0,49.0,30.00,WSW,252,1.0,5.0,100,0.00,,,0.01,,2013-01-13 21:23:00,
2013-01-13 16:33:00,49.0,49.0,30.00,West,276,0.0,6.0,100,0.00,,,0.01,,2013-01-13 21:33:00,
2013-01-13 16:43:00,49.0,49.0,30.00,West,276,0.0,6.0,100,0.00,,,0.01,,2013-01-13 21:43:00,
2013-01-13 16:53:00,49.0,49.0,30.00,West,278,1.0,4.0,100,0.00,,,0.01,,2013-01-13 21:53:00,
2013-01-13 17:02:00,49.0,49.0,29.99,West,263,1.0,3.0,100,0.00,,,0.01,,2013-01-13 22:02:00,
2013-01-13 17:12:00,49.0,49.0,29.99,West,263,1.0,3.0,100,0.00,,,0.01,,2013-01-13 22:12:00,
2013-01-13 17:22:00,49.0,49.0,29.99,West,263,0.0,0.0,100,0.00,,,0.01,,2013-01-13 22:22:00,
2013-01-13 17:33:00,48.0,48.0,29.98,West,259,0.0,4.0,100,0.00,,,0.01,,2013-01-13 22:33:00,
2013-01-13 17:43:00,48.0,48.0,29.98,West,259,0.0,4.0,100,0.00,,,0.01,,2013-01-13 22:43:00,
2013-01-13 17:53:00,48.0,48.0,29.98,West,263,1.0,4.0,100,0.00,,,0.01,,2013-01-13 22:53:00,
2013-01-13 18:02:00,48.0,48.0,29.98,West,263,0.0,3.0,100,0.00,,,0.01,,2013-01-13 23:02:00,
2013-01-13 18:12:00,48.0,48.0,29.98,West,263,0.0,3.0,100,0.00,,,0.01,,2013-01-13 23:12:00,
2013-01-13 18:23:00,48.0,48.0,29.97,West,263,0.0,4.0,100,0.00,,,0.00,,2013-01-13 23:23:00,
2013-01-13 18:33:00,48.0,48.0,29.97,NW,314,0.0,4.0,100,0.00,,,0.00,,2013-01-13 23:33:00,
2013-01-13 18:42:00,48.0,48.0,29.97,NW,314,0.0,4.0,100,0.00,,,0.00,,2013-01-13 23:42:00,
2013-01-13 18:53:00,48.0,48.0,29.97,West,269,1.0,4.0,100,0.00,,,0.00,,2013-01-13 23:53:00,
2013-01-13 19:03:00,48.0,48.0,29.97,West,269,0.0,2.0,100,0.00,,,0.00,,2013-01-14 00:03:00,
2013-01-13 19:12:00,48.0,48.0,29.97,West,269,0.0,2.0,100,0.00,,,0.00,,2013-01-14 00:12:00,
2013-01-13 19:22:00,48.0,48.0,29.98,NW,314,3.0,4.0,100,0.00,,,0.00,,2013-01-14 00:22:00,
2013-01-13 19:33:00,48.0,48.0,29.98,NW,304,1.0,4.0,100,0.00,,,0.00,,2013-01-14 00:33:00,
2013-01-13 19:43:00,48.0,48.0,29.98,NW,304,1.0,4.0,100,0.00,,,0.00,,2013-01-14 00:43:00,
2013-01-13 19:53:00,48.0,48.0,29.98,West,281,2.0,4.0,100,0.00,,,0.00,,2013-01-14 00:53:00,
2013-01-13 20:03:00,48.0,48.0,29.98,NW,310,3.0,6.0,100,0.00,,,0.00,,2013-01-14 01:03:00,
2013-01-13 20:12:00,48.0,48.0,29.98,NW,310,3.0,6.0,100,0.00,,,0.00,,2013-01-14 01:12:00,
2013-01-13 20:22:00,48.0,48.0,29.98,NW,309,2.0,7.0,100,0.00,,,0.00,,2013-01-14 01:22:00,
2013-01-13 20:32:00,48.0,48.0,29.98,WNW,302,3.0,6.0,100,0.00,,,0.00,,2013-01-14 01:32:00,
2013-01-13 20:42:00,48.0,48.0,29.98,WNW,302,3.0,6.0,100,0.00,,,0.00,,2013-01-14 01:42:00,
2013-01-13 20:53:00,48.0,48.0,29.97,WNW,290,2.0,5.0,100,0.00,,,0.00,,2013-01-14 01:53:00,
2013-01-13 21:03:00,49.0,49.0,29.97,WNW,302,3.0,5.0,100,0.00,,,0.00,,2013-01-14 02:03:00,
2013-01-13 21:12:00,49.0,49.0,29.98,WNW,290,4.0,5.0,99,0.00,,,0.00,,2013-01-14 02:12:00,
2013-01-13 21:22:00,49.0,49.0,29.98,WNW,290,4.0,5.0,99,0.00,,,0.00,,2013-01-14 02:22:00,
2013-01-13 21:33:00,49.0,48.0,29.96,WSW,255,2.0,4.0,98,0.00,,,0.00,,2013-01-14 02:33:00,
2013-01-13 21:42:00,49.0,48.0,29.96,WSW,255,2.0,4.0,98,0.00,,,0.00,,2013-01-14 02:42:00,
2013-01-13 21:53:00,49.0,48.0,29.97,West,274,2.0,4.0,97,0.00,,,0.00,,2013-01-14 02:53:00,
2013-01-13 22:03:00,49.0,48.0,29.96,West,264,2.0,4.0,96,0.00,,,0.00,,2013-01-14 03:03:00,
2013-01-13 22:12:00,49.0,48.0,29.96,West,264,2.0,4.0,96,0.00,,,0.00,,2013-01-14 03:12:00,
2013-01-13 22:22:00,49.0,48.0,29.96,West,265,3.0,7.0,96,0.00,,,0.00,,2013-01-14 03:22:00,
2013-01-13 22:32:00,49.0,48.0,29.96,WNW,283,2.0,5.0,96,0.00,,,0.00,,2013-01-14 03:32:00,
2013-01-13 22:42:00,49.0,48.0,29.96,WNW,283,2.0,5.0,96,0.00,,,0.00,,2013-01-14 03:42:00,
2013-01-13 22:53:00,50.0,49.0,29.96,West,278,3.0,9.0,96,0.00,,,0.00,,2013-01-14 03:53:00,
2013-01-13 23:02:00,50.0,49.0,29.96,WNW,296,4.0,5.0,96,0.00,,,0.00,,2013-01-14 04:02:00,
2013-01-13 23:12:00,50.0,49.0,29.96,WNW,296,4.0,5.0,96,0.00,,,0.00,,2013-01-14 04:12:00,
2013-01-13 23:22:00,50.0,49.0,29.96,WNW,297,3.0,6.0,96,0.00,,,0.00,,2013-01-14 04:22:00,
2013-01-13 23:32:00,50.0,49.0,29.96,WNW,293,3.0,5.0,96,0.00,,,0.00,,2013-01-14 04:32:00,
2013-01-13 23:42:00,50.0,49.0,29.96,WNW,293,3.0,5.0,96,0.00,,,0.00,,2013-01-14 04:42:00,
2013-01-13 23:52:00,50.0,49.0,29.96,West,270,2.0,6.0,97,0.00,,,0.00,,2013-01-14 04:52:00,